Location: La Bastide
(43.1661°N, 1.2755°E)
Time: 18:39:59
(UTC+00:00)

ISS - Pass Details

Date: 17 February 2026
Orbit: 416 x 427 km, 51.6° (Epoch: 6 March)

Event Time Altitude Azimuth Distance (km) Brightness Sun altitude
Exits shadow 04:39:09 36° 71° (ENE) 672 -2.3 -24.5°
Drops below altitude 10° 04:41:18 10° 61° (ENE) 1,494 -0.1 -24.1°
Sets 04:43:25 0° 59° (ENE) 2,359 1.1 -23.7°
